« Back
NWS Peachtree City, Ga » Text Product » GA Regional Weather Roundup


Printer-friendly Version
Current Version              Previous Versions:   1  2  3  4  5  6  7  8  9  

Regional Weather Roundup

202
ASUS42 KFFC 221903
RWRGA
WEATHER ROUNDUP FOR GEORGIA
NATIONAL WEATHER SERVICE PEACHTREE CITY GA
200 PM EST MON DEC 22 2014

NOTE: "FAIR" INDICATES FEW OR NO CLOUDS BELOW 12,000 FEET WITH NO
SIGNIFICANT WEATHER AND/OR OBSTRUCTIONS TO VISIBILITY.

* = USE WITH CAUTION. THE STATIONS MARKED WITH AN ASTERISK MAY NOT
REPORT WEATHER SUCH AS PRECIPITATION, FOG, OR THUNDER AND ARE NOT
QUALITY CONTROLLED BY NWS.

THE REMARK "TC" DENOTES TEMPERATURE READING IN DEGREES CELSIUS.

GAZ001>058-222000-
NORTH GEORGIA

CITY           SKY/WX    TMP DP  RH WIND       PRES   REMARKS
ATLANTA        DRZL/FOG  46  44  93 E10       29.93F VSB 1/2
ATHENS         CLOUDY    44  43  96 E9        29.97F FOG
CHAMBLEE       CLOUDY    44  43  96 E5        29.95S FOG
PEACHTREE CITY CLOUDY    47  45  93 E6        29.94F
ROME           CLOUDY    48  44  86 E8        29.90F
WEST ATLANTA   CLOUDY    46  43  89 E6        29.94F
GAINESVILLE    FOG       42  42 100 E9G17     29.96F VSB 1
CARTERSVILLE   CLOUDY    46  42  86 E8        29.92F


CITY           SKY/WX    TMP DP  RH WIND       PRES   REMARKS
DALTON*        CLOUDY    52  45  76 S7        29.89F
$$

GAZ059>098-102>109-222000-
CENTRAL GEORGIA

CITY           SKY/WX    TMP DP  RH WIND       PRES   REMARKS
AUGUSTA-BUSH   LGT RAIN  47  45  93 E5        29.98F FOG
AUGUSTA-DANIEL CLOUDY    47  46  97 N6        30.00R
COLUMBUS       LGT RAIN  49  48  97 SE7       29.90F FOG
MACON          LGT RAIN  48  48 100 NE9       29.93F FOG


CITY           SKY/WX    TMP DP  RH WIND       PRES   REMARKS
LAGRANGE*      CLOUDY    53  52  97 E7        29.89F FOG
SYLVANIA*      RAIN      46  46 100 NE5       29.98R
MILLEDGEVILLE* CLOUDY    46  46 100 NE5       29.96F FOG
$$

GAZ099>101-110>166-222000-
SOUTH GEORGIA

CITY           SKY/WX    TMP DP  RH WIND       PRES   REMARKS
SAVANNAH       HVY RAIN  50  49  96 E8        29.97F VSB 1
VALDOSTA       LGT RAIN  54  54 100 E3        29.90F FOG
ALMA           CLOUDY    51  50  96 E7        29.92F
ST SIMONS      LGT RAIN  57  55  93 NE8       29.92F FOG
ALBANY         CLOUDY    54  51  90 NE5       29.93S
BRUNSWICK      CLOUDY    55  54  94 CALM      29.96F


CITY           SKY/WX    TMP DP  RH WIND       PRES   REMARKS
BAINBRIDGE*    CLOUDY    63  61  94 NE6       29.87F
MOULTRIE*      CLOUDY    55  55 100 SE6       29.89F FOG
VIDALIA*       CLOUDY    50  50 100 NE7       29.94F
WAYCROSS*      LGT RAIN  55  55  99 E8        29.92F
DOUGLAS*       CLOUDY    54  52  94 E9        29.92F
$$



USA.gov is the U.S. government's official web portal to all federal, state and local government web resources and services.